Lake Rousseau Weather Center

Moon Phase Calendar



Lake Rousseau Water Level
Online Cameras

 


      

Current Conditions in Dunnellon
5/24/2022 8:39:59 PM

82°F
Feels Like 83
Clouds
Humidity
55%
Pressure
30"
Wind
5 mph (SE)
Dew Point
64°F
UV Index
0/10 (Low)
Visibility
6 mi

Hourly Forecast

Date & Time Tue, May 24
8:00 PM
Tue, May 24
9:00 PM
Tue, May 24
10:00 PM
Tue, May 24
11:00 PM
Wed, May 25
12:00 AM
Wed, May 25
1:00 AM
Wed, May 25
2:00 AM
Wed, May 25
3:00 AM
Wed, May 25
4:00 AM
Wed, May 25
5:00 AM
Wed, May 25
6:00 AM
Wed, May 25
7:00 AM
Wed, May 25
8:00 AM
Wed, May 25
9:00 AM
Wed, May 25
10:00 AM
Wed, May 25
11:00 AM
Wed, May 25
12:00 PM
Wed, May 25
1:00 PM
Wed, May 25
2:00 PM
Wed, May 25
3:00 PM
Wed, May 25
4:00 PM
Wed, May 25
5:00 PM
Wed, May 25
6:00 PM
Wed, May 25
7:00 PM
Wed, May 25
8:00 PM
Wed, May 25
9:00 PM
Wed, May 25
10:00 PM
Wed, May 25
11:00 PM
Thu, May 26
12:00 AM
Thu, May 26
1:00 AM
Thu, May 26
2:00 AM
Thu, May 26
3:00 AM
Thu, May 26
4:00 AM
Thu, May 26
5:00 AM
Thu, May 26
6:00 AM
Thu, May 26
7:00 AM
Thu, May 26
8:00 AM
Thu, May 26
9:00 AM
Thu, May 26
10:00 AM
Thu, May 26
11:00 AM
Thu, May 26
12:00 PM
Thu, May 26
1:00 PM
Thu, May 26
2:00 PM
Thu, May 26
3:00 PM
Thu, May 26
4:00 PM
Thu, May 26
5:00 PM
Thu, May 26
6:00 PM
Thu, May 26
7:00 PM
Condition
Clouds

Clouds

Clouds

Clouds

Clouds

Clouds

Clouds

Clouds

Clouds

Clouds

Clouds

Clouds

Clouds

Clouds

Clouds

Clouds

Clouds

Clouds

Clouds

Clouds

Clouds

Clouds

Clouds

Clouds

Clouds

Clouds

Clouds

Rain

Rain

Rain

Clouds

Clouds

Clouds

Clouds

Clouds

Clouds

Clouds

Clouds

Clouds

Clouds

Clouds

Clouds

Clouds

Clouds

Clouds

Clouds

Clouds

Clouds
Temperature 82°F82°F82°F81°F79°F77°F75°F74°F74°F73°F73°F73°F75°F78°F81°F85°F87°F90°F92°F92°F91°F90°F89°F88°F83°F83°F81°F78°F73°F73°F73°F74°F73°F74°F73°F73°F75°F78°F82°F85°F88°F90°F92°F92°F92°F89°F87°F84°F
Feels Like 84°F83°F83°F82°F79°F77°F75°F75°F75°F74°F74°F74°F75°F78°F83°F85°F87°F89°F92°F91°F91°F89°F89°F88°F85°F84°F82°F78°F74°F74°F74°F75°F74°F74°F74°F74°F76°F79°F84°F86°F89°F91°F92°F92°F93°F90°F88°F86°F
Cloudiness 96%96%96%94%85%72%71%100%100%100%100%100%100%100%100%100%100%97%95%100%100%100%100%100%100%100%100%100%100%100%100%100%100%100%100%99%98%81%61%60%47%43%42%13%14%17%17%17%
Visibility 6 mi6 mi6 mi6 mi6 mi6 mi6 mi6 mi6 mi6 mi6 mi6 mi6 mi6 mi6 mi6 mi6 mi6 mi6 mi6 mi6 mi6 mi6 mi6 mi6 mi6 mi6 mi6 mi6 mi6 mi6 mi6 mi6 mi6 mi6 mi6 mi6 mi6 mi6 mi6 mi6 mi6 mi6 mi6 mi6 mi6 mi6 mi6 mi
Precipitation 5%4%1%1%2%1%1%0%0%0%0%0%0%0%0%0%0%0%0%0%0%0%0%0%0%7%24%32%41%45%45%9%9%5%5%5%5%0%0%0%0%0%0%0%0%0%0%0%
Humidity 54%55%53%52%57%65%75%80%82%81%80%79%74%68%58%48%41%37%35%35%34%37%38%42%54%53%57%65%82%84%84%83%84%84%85%85%81%72%60%51%45%40%37%35%37%43%47%51%
Dew Point 64°F64°F63°F62°F63°F64°F66°F68°F68°F67°F66°F66°F66°F66°F65°F62°F61°F60°F60°F59°F59°F59°F60°F62°F64°F64°F64°F65°F68°F68°F68°F68°F68°F68°F68°F68°F68°F68°F66°F65°F63°F62°F61°F61°F62°F64°F64°F64°F
Pressure 30"30"30"30"30.03"30.03"30.03"30.03"30"30.03"30.03"30.06"30.09"30.09"30.09"30.09"30.09"30.06"30.03"30"30"29.97"29.97"30"30.03"30.03"30.06"30.09"30.09"30.09"30.06"30.06"30.03"30.03"30.06"30.06"30.09"30.09"30.09"30.09"30.09"30.06"30.03"30"30"29.97"29.97"29.97"
Wind Speed 1.3 mph5 mph9.9 mph10.8 mph11 mph10.5 mph10.5 mph10.4 mph9.9 mph9.7 mph9.5 mph8.5 mph10.2 mph12.2 mph12.9 mph12.2 mph11.4 mph11.3 mph10.9 mph10.4 mph10.2 mph7.2 mph6 mph3.6 mph1.4 mph9.2 mph14.4 mph12.7 mph9.2 mph8.2 mph9 mph10.1 mph9.9 mph9.2 mph9.3 mph10.2 mph10.1 mph13 mph14.2 mph13.5 mph11.7 mph10.5 mph10.4 mph10.8 mph11.7 mph14.1 mph13.2 mph11.2 mph
Wind
Direction
69°
ENE
133°
SE
119°
ESE
118°
ESE
124°
SE
128°
SE
126°
SE
127°
SE
126°
SE
128°
SE
130°
SE
129°
SE
131°
SE
135°
SE
135°
SE
136°
SE
137°
SE
136°
SE
136°
SE
137°
SE
130°
SE
124°
SE
115°
ESE
189°
S
215°
SW
114°
ESE
134°
SE
129°
SE
144°
SE
138°
SE
130°
SE
128°
SE
128°
SE
133°
SE
132°
SE
127°
SE
143°
SE
147°
SSE
150°
SSE
156°
SSE
160°
SSE
166°
SSE
179°
S
195°
SSW
219°
SW
243°
WSW
249°
WSW
250°
WSW

Daily Forecast

Date High Low Precip. Humidity
Today
May 24

Clouds
92 °F
74 °F
40%
41%
Wednesday
May 25

Rain
92 °F
73 °F
32%
37%
Thursday
May 26

Rain
92 °F
73 °F
45%
40%
Friday
May 27

Rain
88 °F
73 °F
53%
48%
Saturday
May 28

Clear
89 °F
71 °F
3%
33%
Sunday
May 29

Clear
93 °F
67 °F
29%
29%
Monday
May 30

Clouds
95 °F
69 °F
18%
32%
Tuesday
May 31

Clear
94 °F
70 °F
0%
26%
Wednesday
Jun 1

Rain
94 °F
66 °F
100%
27%
Thursday
Jun 2

Rain
85 °F
64 °F
96%
48%
Friday
Jun 3

Clouds
92 °F
69 °F
36%
39%
Saturday
Jun 4

Clear
94 °F
72 °F
7%
41%
Sunday
Jun 5

Rain
96 °F
72 °F
100%
38%
Monday
Jun 6

Rain
91 °F
73 °F
100%
51%
Tuesday
Jun 7

Rain
92 °F
71 °F
63%
47%
Wednesday
Jun 8

Rain
90 °F
74 °F
82%
49%

Temperature 8-14 Day Outlook



Precipitation 8-14 Day Outlook




Quick Links
Lake Rousseau News
Lake Rousseau Photos
Lake Rousseau Videos




About Us
Contact Us
Site Map
Search Site
Advertise With Us
   
Rousseau.LakesOnline.com
THE LAKE ROUSSEAU WEBSITE

Copyright 2022, Lakes Online
Privacy    |    Legal